{"data":{"norad_id":68917,"epoch":"2026-09-18T19:00:06.244416Z","epoch_age_seconds":162960,"freshness":"FRESH","line1":"1 68917U 26097Y   26261.79173894  .00021173  00000+0  65601-3 0  9994","line2":"2 68917  97.2847  96.0134 0002869  95.5490 264.6080 15.33457671 21832","mean_motion":15.33457671,"eccentricity":0.0002869,"inclination_deg":97.2847,"raan_deg":96.0134,"arg_perigee_deg":95.549,"mean_anomaly_deg":264.608,"bstar":0.00065601,"rev_number":2183,"period_min":93.905428707461,"perigee_km":463.54203373053,"apogee_km":467.46891578254,"semimajor_km":6843.6424747565,"source":"CELESTRAK","updated_at":"2026-09-20T09:00:44.050697Z"}}